Radiation Dose at Monitoring Post of Fukushima Daini Nuclear Power Station
Date,Time,MP-1(microSv/h),MP-2(microSv/h),MP-3(microSv/h),MP-4(microSv/h),MP-5(microSv/h),MP-6(microSv/h),MP-7(microSv/h),Wind Direction,Wind Velocity(m/s),Rain
2023/04/09,00:00,0.148,0.133,0.209,0.206,0.209,0.117,0.076,northwest,4.7,No
2023/04/09,00:10,0.149,0.133,0.209,0.206,0.208,0.118,0.076,northwest,7.7,No
2023/04/09,00:20,0.148,0.133,0.210,0.206,0.209,0.118,0.075,west-northwest,7.1,No
2023/04/09,00:30,0.149,0.132,0.210,0.206,0.208,0.118,0.076,west-northwest,9.0,Yes
2023/04/09,00:40,0.150,0.133,0.210,0.206,0.209,0.119,0.076,west-northwest,4.8,Yes
2023/04/09,00:50,0.149,0.133,0.209,0.206,0.209,0.118,0.076,west,6.3,No
2023/04/09,01:00,0.150,0.134,0.210,0.206,0.209,0.118,0.076,west-southwest,4.5,No
2023/04/09,01:10,0.150,0.133,0.211,0.207,0.209,0.118,0.077,west-northwest,2.7,No
2023/04/09,01:20,0.150,0.134,0.210,0.206,0.210,0.118,0.076,west-northwest,3.7,No
2023/04/09,01:30,0.150,0.134,0.210,0.206,0.210,0.118,0.076,northwest,6.0,No
2023/04/09,01:40,0.150,0.134,0.209,0.206,0.209,0.118,0.075,northwest,4.8,No
2023/04/09,01:50,0.149,0.133,0.209,0.207,0.209,0.118,0.076,west,6.1,No
2023/04/09,02:00,0.149,0.133,0.209,0.206,0.209,0.118,0.076,west-northwest,7.1,No
2023/04/09,02:10,0.149,0.133,0.210,0.205,0.209,0.118,0.076,west-northwest,6.5,No
2023/04/09,02:20,0.149,0.133,0.210,0.206,0.209,0.118,0.075,west-northwest,6.2,No
2023/04/09,02:30,0.150,0.133,0.209,0.206,0.209,0.119,0.076,west-northwest,8.8,No
2023/04/09,02:40,0.149,0.134,0.209,0.206,0.209,0.118,0.076,west-northwest,11.5,No
2023/04/09,02:50,0.149,0.134,0.210,0.207,0.209,0.117,0.076,west-northwest,9.0,No
2023/04/09,03:00,0.149,0.134,0.210,0.206,0.209,0.118,0.076,west,9.2,No
2023/04/09,03:10,0.150,0.134,0.211,0.205,0.208,0.118,0.076,west,10.6,No
2023/04/09,03:20,0.150,0.133,0.210,0.205,0.209,0.118,0.076,west,8.5,No
2023/04/09,03:30,0.150,0.133,0.209,0.205,0.208,0.118,0.076,west-northwest,10.7,No
2023/04/09,03:40,0.150,0.134,0.209,0.206,0.209,0.118,0.075,west-northwest,9.2,No
2023/04/09,03:50,0.149,0.133,0.210,0.206,0.208,0.118,0.075,west-northwest,10.7,No
2023/04/09,04:00,0.150,0.133,0.209,0.206,0.210,0.118,0.075,west,13.6,No
2023/04/09,04:10,0.149,0.134,0.209,0.207,0.209,0.119,0.076,west,17.1,No
2023/04/09,04:20,0.150,0.134,0.211,0.205,0.208,0.118,0.076,west,18.5,No
2023/04/09,04:30,0.149,0.134,0.210,0.205,0.209,0.119,0.076,west,16.4,No
2023/04/09,04:40,0.149,0.133,0.210,0.207,0.209,0.118,0.076,west,22.4,No
2023/04/09,04:50,0.149,0.133,0.210,0.206,0.209,0.118,0.076,west,23.5,No
2023/04/09,05:00,-,-,-,-,-,-,-,-,-,-
2023/04/09,05:10,0.149,0.133,0.210,0.206,0.209,0.119,0.077,west,17.9,No
2023/04/09,05:20,0.150,0.134,0.211,0.207,0.209,0.118,0.076,west,18.8,No
2023/04/09,05:30,0.150,0.133,0.210,0.208,0.210,0.118,0.076,west,15.3,No
2023/04/09,05:40,0.151,0.134,0.211,0.207,0.209,0.118,0.076,west-northwest,12.6,No
2023/04/09,05:50,0.150,0.134,0.210,0.207,0.210,0.118,0.076,west,12.6,No
2023/04/09,06:00,0.150,0.134,0.210,0.207,0.210,0.118,0.075,west-northwest,13.4,No
2023/04/09,06:10,0.151,0.133,0.211,0.205,0.210,0.118,0.075,west-northwest,10.1,No
2023/04/09,06:20,0.150,0.134,0.211,0.206,0.208,0.118,0.076,west-northwest,11.5,No
2023/04/09,06:30,0.150,0.133,0.210,0.208,0.210,0.119,0.075,west-northwest,9.0,No
2023/04/09,06:40,0.150,0.134,0.211,0.207,0.209,0.119,0.075,west-northwest,9.6,No
2023/04/09,06:50,0.150,0.134,0.210,0.206,0.209,0.119,0.075,west-northwest,10.6,No
2023/04/09,07:00,0.150,0.133,0.210,0.206,0.209,0.118,0.075,west-northwest,13.4,No
2023/04/09,07:10,0.151,0.133,0.210,0.207,0.209,0.119,0.076,west-northwest,12.3,No
2023/04/09,07:20,0.151,0.135,0.211,0.207,0.209,0.118,0.075,west-northwest,9.8,No
2023/04/09,07:30,0.150,0.133,0.209,0.206,0.208,0.118,0.075,west-northwest,9.6,No
2023/04/09,07:40,0.150,0.134,0.209,0.206,0.209,0.119,0.075,northwest,8.2,No
2023/04/09,07:50,0.151,0.133,0.209,0.206,0.210,0.118,0.076,west-northwest,7.6,No
2023/04/09,08:00,0.151,0.134,0.208,0.205,0.209,0.119,0.076,west-northwest,7.6,No
2023/04/09,08:10,0.150,0.133,0.209,0.205,0.210,0.118,0.076,west-northwest,8.1,No
2023/04/09,08:20,0.150,0.133,0.208,0.206,0.209,0.118,0.076,northwest,7.7,No
2023/04/09,08:30,0.151,0.134,0.209,0.205,0.208,0.118,0.076,west-northwest,6.9,No
2023/04/09,08:40,0.149,0.133,0.209,0.207,0.210,0.119,0.076,northwest,6.0,No
2023/04/09,08:50,0.151,0.134,0.210,0.206,0.209,0.119,0.076,west-northwest,6.3,No
2023/04/09,09:00,0.151,0.134,0.209,0.207,0.209,0.119,0.075,northwest,7.5,No
2023/04/09,09:10,0.149,0.133,0.210,0.205,0.209,0.118,0.076,west-northwest,8.6,No
2023/04/09,09:20,0.150,0.133,0.209,0.206,0.209,0.118,0.076,northwest,10.3,No
2023/04/09,09:30,0.150,0.134,0.210,0.206,0.210,0.118,0.076,northwest,6.7,No
2023/04/09,09:40,0.149,0.133,0.208,0.205,0.208,0.117,0.076,northwest,5.7,Yes
2023/04/09,09:50,0.150,0.133,0.208,0.206,0.211,0.119,0.076,northwest,5.4,No
2023/04/09,10:00,0.151,0.133,0.210,0.206,0.209,0.118,0.076,north-northwest,4.9,No
2023/04/09,10:10,0.150,0.134,0.210,0.207,0.210,0.118,0.075,northwest,4.8,No
2023/04/09,10:20,0.149,0.132,0.211,0.206,0.211,0.118,0.076,northwest,6.9,No
2023/04/09,10:30,-,-,-,-,-,-,-,-,-,-
2023/04/09,10:40,0.151,0.133,0.210,0.205,0.210,0.118,0.076,west-northwest,10.0,No
2023/04/09,10:50,0.149,0.134,0.210,0.207,0.209,0.119,0.076,west-northwest,9.2,No
2023/04/09,11:00,0.149,0.134,0.210,0.207,0.212,0.118,0.076,west-northwest,2.8,No
2023/04/09,11:10,0.150,0.135,0.210,0.208,0.208,0.118,0.077,west-northwest,7.3,No
2023/04/09,11:20,0.150,0.134,0.209,0.206,0.210,0.118,0.075,northwest,10.3,No
2023/04/09,11:30,0.151,0.133,0.211,0.208,0.208,0.119,0.076,west-northwest,11.1,No
2023/04/09,11:40,0.150,0.134,0.209,0.207,0.210,0.119,0.076,west-northwest,9.5,No
2023/04/09,11:50,0.150,0.134,0.211,0.207,0.210,0.119,0.076,west-northwest,11.2,No
2023/04/09,12:00,0.150,0.134,0.210,0.207,0.210,0.117,0.075,west-northwest,11.2,No
2023/04/09,12:10,0.150,0.133,0.211,0.208,0.209,0.120,0.076,west-northwest,9.0,No
2023/04/09,12:20,0.151,0.133,0.210,0.207,0.211,0.118,0.076,west-northwest,12.2,No
2023/04/09,12:30,0.151,0.134,0.210,0.207,0.210,0.119,0.077,west-northwest,6.2,No
2023/04/09,12:40,0.150,0.135,0.212,0.207,0.211,0.117,0.077,west,6.1,No
2023/04/09,12:50,0.150,0.134,0.210,0.207,0.211,0.119,0.076,west,6.5,No
2023/04/09,13:00,0.151,0.134,0.212,0.207,0.212,0.119,0.076,west-northwest,5.4,No
2023/04/09,13:10,0.149,0.135,0.211,0.208,0.209,0.119,0.076,west-northwest,8.3,No
2023/04/09,13:20,0.151,0.133,0.212,0.208,0.211,0.119,0.077,west-northwest,9.2,No
2023/04/09,13:30,0.150,0.135,0.211,0.208,0.210,0.119,0.076,west-northwest,10.6,No
2023/04/09,13:40,0.151,0.134,0.212,0.208,0.211,0.119,0.076,west,8.7,No
2023/04/09,13:50,0.150,0.134,0.210,0.207,0.209,0.119,0.076,west,10.1,No
2023/04/09,14:00,0.151,0.135,0.211,0.207,0.211,0.119,0.076,west-northwest,10.7,No
2023/04/09,14:10,0.150,0.134,0.210,0.208,0.209,0.119,0.076,west-northwest,10.1,No
2023/04/09,14:20,0.150,0.134,0.212,0.208,0.211,0.119,0.075,west-northwest,9.0,No
2023/04/09,14:30,0.151,0.133,0.211,0.207,0.211,0.118,0.076,west-northwest,6.1,No
2023/04/09,14:40,0.150,0.134,0.210,0.208,0.208,0.119,0.076,west-northwest,9.0,No
2023/04/09,14:50,0.151,0.134,0.213,0.209,0.212,0.118,0.076,west-northwest,6.3,No
2023/04/09,15:00,0.151,0.134,0.210,0.207,0.210,0.120,0.077,west,6.5,No
2023/04/09,15:10,0.150,0.135,0.213,0.208,0.210,0.120,0.076,west-northwest,7.4,No
2023/04/09,15:20,0.150,0.135,0.211,0.208,0.211,0.119,0.076,west,8.3,No
2023/04/09,15:30,0.150,0.134,0.213,0.209,0.210,0.119,0.077,west-northwest,7.3,No
2023/04/09,15:40,0.151,0.135,0.212,0.208,0.211,0.119,0.076,west,7.3,No
2023/04/09,15:50,0.151,0.135,0.214,0.209,0.211,0.119,0.077,west-northwest,6.3,No
2023/04/09,16:00,0.151,0.135,0.213,0.210,0.211,0.120,0.076,west-northwest,7.5,No
2023/04/09,16:10,0.151,0.135,0.213,0.209,0.213,0.119,0.077,west-northwest,6.1,No
2023/04/09,16:20,0.151,0.135,0.213,0.209,0.211,0.120,0.077,west,8.1,No
2023/04/09,16:30,0.151,0.134,0.212,0.209,0.211,0.120,0.076,west,9.5,No
2023/04/09,16:40,0.151,0.135,0.211,0.209,0.212,0.119,0.076,west,8.1,No
2023/04/09,16:50,0.150,0.135,0.213,0.209,0.211,0.119,0.076,west-northwest,3.2,No
2023/04/09,17:00,0.151,0.135,0.212,0.209,0.210,0.121,0.076,northwest,5.2,No
2023/04/09,17:10,0.152,0.134,0.212,0.209,0.213,0.120,0.076,west,6.4,No
2023/04/09,17:20,0.151,0.135,0.213,0.209,0.211,0.120,0.077,west,8.2,No
2023/04/09,17:30,0.151,0.136,0.212,0.209,0.214,0.120,0.075,west-northwest,8.7,No
2023/04/09,17:40,0.151,0.135,0.213,0.209,0.212,0.120,0.076,west,8.5,No
2023/04/09,17:50,0.151,0.135,0.213,0.211,0.211,0.120,0.077,west-northwest,7.5,No
2023/04/09,18:00,0.152,0.135,0.212,0.209,0.211,0.121,0.077,west,6.7,No
2023/04/09,18:10,0.151,0.135,0.212,0.208,0.212,0.120,0.075,west-northwest,7.9,No
2023/04/09,18:20,0.150,0.134,0.212,0.210,0.211,0.119,0.076,west,7.8,No
2023/04/09,18:30,0.151,0.135,0.213,0.210,0.212,0.120,0.076,west,7.7,No
2023/04/09,18:40,0.151,0.134,0.212,0.208,0.212,0.120,0.077,west,7.6,No
2023/04/09,18:50,0.151,0.135,0.214,0.209,0.212,0.120,0.076,west,7.1,No
2023/04/09,19:00,0.151,0.136,0.213,0.209,0.212,0.120,0.076,west,7.3,No
2023/04/09,19:10,0.151,0.135,0.213,0.209,0.211,0.119,0.076,west,6.3,No
2023/04/09,19:20,0.151,0.135,0.213,0.209,0.212,0.120,0.077,west-northwest,6.0,No
2023/04/09,19:30,0.152,0.135,0.212,0.208,0.211,0.119,0.077,west,6.6,No
2023/04/09,19:40,0.152,0.135,0.212,0.208,0.211,0.121,0.076,west,6.8,No
2023/04/09,19:50,0.151,0.135,0.213,0.209,0.211,0.119,0.077,west,6.9,No
2023/04/09,20:00,0.152,0.135,0.213,0.209,0.212,0.120,0.077,west,7.0,No
2023/04/09,20:10,0.150,0.135,0.213,0.209,0.211,0.120,0.076,west,8.1,No
2023/04/09,20:20,0.151,0.135,0.212,0.210,0.211,0.120,0.076,west,6.9,No
2023/04/09,20:30,0.151,0.135,0.212,0.208,0.210,0.120,0.076,west,6.6,No
2023/04/09,20:40,0.151,0.135,0.214,0.209,0.211,0.120,0.076,west,6.9,No
2023/04/09,20:50,0.151,0.135,0.212,0.209,0.211,0.120,0.076,west,6.6,No
2023/04/09,21:00,0.151,0.134,0.213,0.210,0.211,0.120,0.076,west,6.9,No
2023/04/09,21:10,0.151,0.135,0.213,0.209,0.210,0.120,0.076,west,7.2,No
2023/04/09,21:20,0.151,0.136,0.212,0.211,0.210,0.121,0.077,west-northwest,6.5,No
2023/04/09,21:30,0.151,0.134,0.213,0.209,0.211,0.120,0.077,west,5.9,No
2023/04/09,21:40,0.151,0.135,0.213,0.208,0.211,0.119,0.076,west,5.0,No
2023/04/09,21:50,0.151,0.135,0.213,0.210,0.211,0.120,0.076,west,5.0,No
2023/04/09,22:00,0.152,0.135,0.213,0.209,0.212,0.119,0.077,west-northwest,5.1,No
2023/04/09,22:10,0.151,0.134,0.212,0.209,0.211,0.120,0.076,west,5.0,No
2023/04/09,22:20,0.152,0.134,0.213,0.209,0.212,0.120,0.076,west,4.3,No
2023/04/09,22:30,0.151,0.135,0.213,0.209,0.211,0.120,0.077,west,4.2,No
2023/04/09,22:40,0.151,0.135,0.212,0.210,0.212,0.119,0.076,west,4.2,No
2023/04/09,22:50,0.152,0.135,0.214,0.209,0.212,0.120,0.077,west,2.4,No
2023/04/09,23:00,0.151,0.135,0.213,0.209,0.211,0.119,0.077,west,2.6,No
2023/04/09,23:10,0.151,0.134,0.213,0.208,0.210,0.120,0.076,west-southwest,5.0,No
2023/04/09,23:20,0.151,0.134,0.213,0.210,0.211,0.120,0.077,west-southwest,4.9,No
2023/04/09,23:30,0.151,0.135,0.213,0.211,0.212,0.119,0.076,west,6.8,No
2023/04/09,23:40,0.151,0.135,0.213,0.209,0.212,0.120,0.076,west-northwest,7.1,No
2023/04/09,23:50,0.151,0.135,0.213,0.210,0.210,0.119,0.077,west-northwest,7.4,No
